KOREASAT 7

Last updated on Nov. 15, 2019, 4:20 a.m. UTC

1 42691U 17023A   19318.50702559 -.00000348  00000-0  00000+0 0  9995
2 42691   0.0191  64.3857 0001768 132.9465 154.4301  1.00270362  9312
UTC
Height (km)
Latitude
Longitude
Inclination
Orbital Period
UTC large
Height (km)
Speed (km/s)
/
Latitude / Longitude
Inclination (degrees)
Orbital Period (minutes)
Azimuth
Elevation
Range (km)
Doppler Factor
iOS Compass Heading
iOS Angle

Next 30 passes for location: Hong Kong

Rise time Rise Azimuth (degrees) Set time Set Azimuth (degrees) Duration Max altitude (degrees)

No matching passes for this satellites